Weather History for Miami, FL

Change the Weather History Date:

Saturday, March 23, 2013

  Actual Average Record
Temperature  
Mean Temperature 78 °F 73 °F  
Max Temperature 86 °F 81 °F 90 °F (2005)
Min Temperature 69 °F 66 °F 45 °F (1945)
Degree Days  
Heating Degree Days 0 0  
Month to date heating degree days 24 8  
Since 1 July heating degree days 60 124  
Cooling Degree Days 13 8  
Month to date cooling degree days 93 176  
Year to date cooling degree days 572 498  
Growing Degree Days 29 (Base 50)    
Moisture  
Dew Point 71 °F    
Average Humidity 83    
Maximum Humidity 100    
Minimum Humidity 65    
Precipitation  
Precipitation 0.00 in 0.10 in 2.85 in (1984)
Month to date precipitation 0.81 2.13  
Year to date precipitation 3.20 6.00  
Snow  
Snow 0.00 in - - ()
Month to date snowfall 0.0  
Since 1 July snowfall 0.0  
Snow Depth 0.00 in    
Sea Level Pressure  
Sea Level Pressure 29.93 in    
Wind  
Wind Speed 8 mph (SSE)    
Max Wind Speed 17 mph    
Max Gust Speed 29 mph    
Visibility 8 miles    
Events      
T = Trace of Precipitation, MM = Missing Value Source: NWS Daily Summary

Daily Weather History Graph

Daily Weather History Graph

Search for Another Location

Airport:

Trip Planner

Search our weather history database for the weather conditions in past years. The results will help you decide how hot, cold, wet, or windy it might be!

Date:

Astronomy

Mar. 23, 2013 Rise Set
Actual Time 7:21 AM EDT 7:34 PM EDT
Civil Twilight 6:58 AM EDT 7:57 PM EDT
Nautical Twilight 6:32 AM EDT 8:23 PM EDT
Astronomical Twilight 6:05 AM EDT 8:50 PM EDT
Moon 4:17 PM EDT (3/23) 4:37 AM EDT (3/23)
Length of Visible Light 12h 58m
Length of Day
12h 12m
Waxing Gibbous, 85% of the Moon is Illuminated
Mar 23
Waxing Gibbous
Mar 27
Full
Apr 3
Last Quarter
Apr 10
New
Apr 18
First Quarter

Hourly Weather History & Observations

Time (EDT) Temp. Heat Index Dew Point Humidity Pressure Visibility Wind Dir Wind Speed Gust Speed Precip Events Conditions
12:53 AM 72.0 °F - 71.1 °F 97% 29.99 in 7.0 mi East 3.5 mph - N/A   Mostly Cloudy
1:08 AM 71.6 °F - 69.8 °F 94% 29.99 in 7.0 mi ESE 3.5 mph - N/A   Scattered Clouds
1:53 AM 73.0 °F - 71.1 °F 93% 29.98 in 7.0 mi South 4.6 mph - N/A   Scattered Clouds
2:53 AM 73.4 °F - 71.6 °F 94% 29.97 in 6.0 mi South 5.8 mph - N/A   Scattered Clouds
3:53 AM 73.9 °F - 71.1 °F 91% 29.96 in 6.0 mi Variable 3.5 mph - N/A   Scattered Clouds
4:53 AM 73.9 °F - 72.0 °F 93% 29.94 in 6.0 mi Variable 4.6 mph - N/A   Scattered Clouds
5:53 AM 73.0 °F - 72.0 °F 96% 29.94 in 6.0 mi South 3.5 mph - N/A   Scattered Clouds
6:53 AM 73.0 °F - 71.1 °F 93% 29.95 in 6.0 mi SSE 4.6 mph - N/A   Scattered Clouds
7:53 AM 73.9 °F - 72.0 °F 93% 29.96 in 6.0 mi SSE 4.6 mph - N/A   Scattered Clouds
8:53 AM 75.9 °F - 73.9 °F 94% 29.98 in 6.0 mi South 9.2 mph - N/A   Scattered Clouds
9:09 AM 75.2 °F - 73.4 °F 94% 29.98 in 6.0 mi South 9.2 mph - N/A   Mostly Cloudy
9:36 AM 75.2 °F - 73.4 °F 94% 29.98 in 6.0 mi South 10.4 mph - N/A   Scattered Clouds
9:53 AM 79.0 °F - 73.9 °F 84% 29.98 in 10.0 mi SSE 8.1 mph - N/A   Scattered Clouds
10:53 AM 82.0 °F 86.3 °F 71.1 °F 69% 29.98 in 10.0 mi South 10.4 mph 18.4 mph N/A   Scattered Clouds
11:53 AM 82.9 °F 88.0 °F 72.0 °F 69% 29.96 in 10.0 mi South 11.5 mph - N/A   Scattered Clouds
12:53 PM 84.0 °F 89.0 °F 71.1 °F 65% 29.94 in 10.0 mi SE 11.5 mph 20.7 mph N/A   Scattered Clouds
1:53 PM 84.9 °F 90.1 °F 71.1 °F 63% 29.91 in 10.0 mi SE 13.8 mph - N/A   Scattered Clouds
2:53 PM 84.9 °F 90.1 °F 71.1 °F 63% 29.89 in 10.0 mi SE 11.5 mph 19.6 mph N/A   Scattered Clouds
3:53 PM 84.0 °F 89.0 °F 71.1 °F 65% 29.87 in 10.0 mi SE 10.4 mph 21.9 mph N/A   Partly Cloudy
4:53 PM 82.9 °F 87.0 °F 70.0 °F 65% 29.85 in 10.0 mi SSE 15.0 mph 24.2 mph N/A   Partly Cloudy
5:53 PM 82.9 °F 86.5 °F 69.1 °F 63% 29.84 in 10.0 mi SSE 12.7 mph 19.6 mph N/A   Partly Cloudy
6:53 PM 81.0 °F 84.1 °F 69.1 °F 67% 29.85 in 10.0 mi South 10.4 mph 17.3 mph N/A   Clear
7:53 PM 78.1 °F - 71.1 °F 79% 29.86 in 10.0 mi ESE 6.9 mph - N/A   Partly Cloudy
8:53 PM 77.0 °F - 71.1 °F 82% 29.88 in 10.0 mi South 4.6 mph - N/A   Partly Cloudy
9:53 PM 75.9 °F - 72.0 °F 87% 29.90 in 10.0 mi South 6.9 mph - N/A   Scattered Clouds
10:53 PM 75.9 °F - 72.0 °F 87% 29.91 in 10.0 mi Variable 6.9 mph - N/A   Partly Cloudy
11:53 PM 75.9 °F - 73.0 °F 91% 29.90 in 9.0 mi SSE 5.8 mph - N/A   Partly Cloudy